This demonstration page uses our WeatherBlox Daily Observations layout. Learn more.

Left ArrowRight Arrow

Hourly Observations for March 27, 2021

Temp ( °F °C ) Dew Point ( °F °C ) Humidity (%) Winds ( mph kmh ) Pressure ( in mb ) Visibility ( mi km ) Precip ( " mm )
12:33 am 00:33 Mostly Cloudy 47 8.3 42 5.6 83 83 NNE 6 9 29.90 1013 10 16 N/A
12:54 am 00:54 Cloudy 49 9.4 44 6.7 83 83 ENE 7 11 29.88 1012 10 16 N/A
1:21 am 01:21 Cloudy 49 9.4 44 6.7 83 83 E 9 15 29.87 1012 10 16 N/A
1:54 am 01:54 Cloudy 50 10 45 7.2 83 83 E 7 11 29.85 1011 10 16 N/A
2:24 am 02:24 Cloudy 50 10 46 7.8 86 86 ESE 3 6 29.86 1011 10 16 N/A
2:54 am 02:54 Cloudy 51 10.6 46 7.8 83 83 E 9 15 29.84 1011 10 16 N/A
3:54 am 03:54 Cloudy 50 10 46 7.8 86 86 E 6 9 29.84 1011 10 16 N/A
4:10 am 04:10 Cloudy 50 10 46 7.8 86 86 E 5 7 29.86 1011 10 16 N/A
4:54 am 04:54 Cloudy 50 10 46 7.8 86 86 ESE 7 11 29.84 1010 10 16 0.00 0.00
5:39 am 05:39 Cloudy 50 10 46 7.8 86 86 N 5 7 29.84 1011 10 16 N/A
5:54 am 05:54 Cloudy 49 9.4 46 7.8 90 90 N 6 9 29.84 1011 10 16 N/A
6:54 am 06:54 Cloudy 49 9.4 45 7.2 86 86 NNW 6 9 29.86 1011 10 16 N/A
7:54 am 07:54 Cloudy 48 8.9 44 6.7 86 86 NW 9 15 29.88 1012 9 14 N/A
8:54 am 08:54 Cloudy with Haze 48 8.9 43 6.1 83 83 NW 14 22 29.91 1013 6 10 N/A
8:59 am 08:59 Cloudy with Haze 49 9.4 44 6.7 83 83 NW 15 24 29.91 1013 6 10 N/A
9:54 am 09:54 Mostly Sunny 52 11.1 42 5.6 69 69 NW 16 26 29.91 1013 9 14 N/A
10:54 am 10:54 Partly Cloudy 54 12.2 42 5.6 64 64 NNW 22 35 29.93 1014 10 16 N/A
11:37 am 11:37 Mostly Cloudy 54 12.2 41 5 62 62 NNW 14 22 29.95 1014 10 16 N/A
11:54 am 11:54 Mostly Cloudy 54 12.2 41 5 62 62 NW 17 28 29.96 1014 10 16 N/A
12:54 pm 12:54 Cloudy 52 11.1 40 4.4 64 64 NW 22 35 29.98 1015 10 16 N/A
1:54 pm 13:54 Cloudy 53 11.7 39 3.9 59 59 NNW 22 35 30.01 1016 10 16 N/A
2:16 pm 14:16 Cloudy 54 12.2 39 3.9 57 57 NNW 18 30 30.01 1016 10 16 N/A
2:54 pm 14:54 Mostly Cloudy 56 13.3 37 2.8 49 49 NW 18 30 30.00 1016 10 16 N/A
3:54 pm 15:54 Cloudy 54 12.2 37 2.8 53 53 NNW 17 28 30.01 1016 10 16 N/A
4:54 pm 16:54 Mostly Cloudy 58 14.4 36 2.2 44 44 NW 18 30 30.01 1016 10 16 N/A
5:54 pm 17:54 Sunny 57 13.9 33 0.6 41 41 NW 21 33 30.02 1017 10 16 N/A
6:54 pm 18:54 Sunny 55 12.8 27 -2.8 34 34 NW 22 35 30.06 1018 10 16 N/A
7:54 pm 19:54 Clear 52 11.1 26 -3.3 37 37 NNW 21 33 30.09 1019 10 16 N/A
8:54 pm 20:54 Clear 49 9.4 24 -4.4 38 38 NNW 20 31 30.13 1020 10 16 N/A
9:54 pm 21:54 Clear 44 6.7 27 -2.8 51 51 NNW 22 35 30.17 1022 10 16 N/A
10:54 pm 22:54 Clear 41 5 29 -1.7 62 62 NNW 14 22 30.19 1022 10 16 N/A
11:54 pm 23:54 Clear 39 3.9 29 -1.7 67 67 NW 10 17 30.20 1023 10 16 N/A

Powered by AerisWeather